[[{"header":{"parameterUnit":"m.s-1","parameterCategory":2,"la1":30.2991,"la2":30.254,"lo1":-89.0895,"lo2":-89.0444,"dy":0.0017,"dx":0.0017,"nx":28,"ny":28,"refTime":"2026-02-03T09:00:00:Z","depth":"0","parameterNumber":2,"parameterNumberName":"U-component_of_CURRENTS"},"data":[0,0,0,0,0,0,0,0,0,0,0,0,0,0,0,0,0,0,0,0,0,0,0,0,0,0,0,0,0,0,0,0,0,0,0,0,0,0,0,0,0,0,0,0,0,0,0,0,0,0,0,0,0,0,0,0,0,0,0.0926,0.0925,0,0.0905,0.0905,0.0906,0.0964,0.0966,0.0967,0.0968,0.0923,0.0921,0.0919,0,0,0,0,0,0,0,0,0,0,0,0,0,0.095,0.095,0.0926,0.0925,0.0924,0.0905,0.0905,0.0906,0.0964,0.0966,0.0967,0.0968,0.0924,0.0921,0.0919,0,0,0,0,0,0,0,0,0,0,0,0,0,0.0943,0.0951,0.0926,0.0946,0.0947,0.0905,0.0906,0.0906,0.0964,0.0966,0.0967,0.0969,0.0925,0.0922,0.0918,0.0864,0,0,0.0908,0.0907,0,0,0,0,0,0,0,0,0.0943,0.0943,0.0944,0.0944,0.0945,0.0933,0.0897,0.0888,0.0964,0.0965,0.0968,0.097,0.0918,0.0915,0.0919,0.0862,0.086,0.0908,0.0906,0.0904,0.0903,0,0,0,0,0,0,0,0.0944,0.0943,0.0925,0.0942,0.0943,0.0932,0.0934,0.0896,0.0938,0.0965,0.0968,0.0953,0.092,0.0922,0.0918,0.0859,0.0908,0.0905,0.0903,0.0902,0.0842,0.0843,0,0,0,0,0,0,0.0933,0.0944,0.0926,0.0924,0.094,0.093,0.0933,0.0941,0.0939,0.0938,0.0951,0.0955,0.0927,0.0922,0.0916,0.09,0.0904,0.0901,0.0899,0.0842,0.0842,0.0843,0,0,0,0,0,0,0.0934,0.0932,0.0927,0.0926,0.0924,0.0927,0.0936,0.0939,0.0955,0.0927,0.0928,0.0964,0.0928,0.0921,0.0946,0.0896,0.09,0.0897,0.0841,0.0842,0.0843,0.0834,0,0,0,0,0,0,0.0935,0.0934,0.0948,0.0926,0.0923,0.0911,0.0934,0.0938,0.0938,0.0944,0.0937,0.0934,0.0929,0.0951,0.0943,0.0892,0.0894,0.0841,0.0842,0.0842,0.0834,0.0835,0.0835,0,0,0,0,0,0.0937,0.0935,0.095,0.0947,0.094,0.091,0.0909,0.092,0.0937,0.0942,0.0978,0.0936,0.0948,0.0951,0.094,0.0886,0.084,0.0841,0.0842,0.0834,0.0834,0.0835,0,0,0,0,0,0,0.1007,0.0939,0.0955,0.0953,0.0939,0.0917,0.0901,0.092,0.0948,0.0957,0.0958,0.0959,0.095,0.0936,0.0938,0.0877,0.0877,0.0876,0.0875,0.0875,0.0875,0.0891,0.0891,0,0,0,0,0,0.1014,0.0962,0.0944,0.0944,0.0923,0.0917,0.0909,0.092,0.0928,0.0943,0.0944,0.0944,0.0938,0.093,0.0919,0.0889,0.0882,0.0846,0.0846,0.0847,0.0856,0.0791,0.0785,0.0846,0.0846,0.0846,0,0,0.1041,0.0995,0.0975,0.0947,0.0924,0.0908,0.0918,0.0895,0.0904,0.0927,0.094,0.0943,0.0938,0.0922,0.0911,0.0906,0.0839,0.0848,0.0848,0.0857,0.0791,0.0785,0.0779,0.0847,0.0847,0.0846,0,0,0.1035,0.1023,0.097,0.0942,0.0896,0.0896,0.0891,0.0876,0.0889,0.0906,0.0926,0.0934,0.0909,0.0909,0.0902,0.0897,0.0848,0.0863,0.0865,0.0802,0.0795,0.079,0.0826,0.0823,0.0857,0.0857,0.0857,0,0.1076,0.1023,0.0962,0.0912,0.0893,0.0891,0.0875,0.0877,0.0891,0.0889,0.0911,0.0904,0.0903,0.0885,0.0904,0.0891,0.088,0.0859,0.0799,0.0793,0.0787,0.0825,0.0822,0.0857,0.0857,0.0857,0.0857,0,0.1033,0.0996,0.0955,0.089,0.0876,0.0846,0.0838,0.084,0.0855,0.0858,0.0851,0.0876,0.0869,0.0857,0.0888,0.0837,0.0856,0.0808,0.0791,0.078,0.0822,0.0819,0.0856,0.0856,0.0856,0.0856,0,0,0.1099,0.0952,0.0944,0.0905,0.0858,0.084,0.0835,0.0826,0.0834,0.0828,0.0824,0.0833,0.0833,0.0832,0.084,0.0811,0.0795,0.08,0.0797,0.0829,0.0716,0.0794,0.0799,0.0711,0.0709,0.0708,0.0781,0,0.1091,0.0987,0.0936,0.0886,0.0833,0.0821,0.0823,0.0817,0.083,0.0824,0.0806,0.0813,0.082,0.0833,0.0792,0.0813,0.0778,0.0784,0.073,0.0732,0.0791,0.0794,0.0762,0.0827,0.0778,0.0778,0.0778,0,0.1057,0.0991,0.0927,0.0847,0.0832,0.0826,0.0824,0.0828,0.0812,0.0819,0.0796,0.0794,0.0796,0.0777,0.0764,0.0763,0.0733,0.0735,0.0735,0.0805,0.0801,0.082,0.0824,0.0748,0.0773,0.0773,0.0774,0,0.1081,0.0977,0.0926,0.0897,0.0834,0.0823,0.0815,0.0815,0.083,0.0814,0.0836,0.0797,0.0802,0.0752,0.0798,0.0756,0.0788,0.0711,0.075,0.076,0.0726,0.0734,0.0637,0.0632,0.0632,0.0632,0.0631,0,0.1066,0.1028,0.0923,0.0897,0.0872,0.0823,0.0834,0.0829,0.0832,0.0842,0.0828,0.0848,0.0782,0.0804,0.0799,0.0828,0.0776,0.0773,0.0766,0.0733,0.0741,0.0669,0.054,0.0634,0.0634,0.0633,0.0633,0,0.1101,0.1025,0.0957,0.0883,0.0867,0.0851,0.0842,0.0855,0.0869,0.0886,0.0884,0.0878,0.0911,0.0918,0.0878,0.0854,0.0819,0.0865,0.0902,0.0897,0.0837,0.0709,0.0623,0.0628,0.0901,0.0903,0.0904,0,0.1101,0.1054,0.0966,0.0926,0.0894,0.0868,0.0866,0.087,0.0891,0.0919,0.0927,0.0952,0.0968,0.1027,0.0999,0.1023,0.089,0.0983,0.0867,0.0854,0.0702,0.0656,0.0662,0.0845,0.0846,0.0847,0.0848,0,0.1099,0.1064,0.1017,0.0935,0.0901,0.0907,0.0892,0.0921,0.0931,0.0953,0.0976,0.0991,0.1034,0.1031,0.1078,0.1067,0.0897,0.1001,0.0917,0.0604,0.0607,0.0605,0.0856,0.0856,0.0855,0.0855,0.0854,0.0854,0.1097,0.1058,0.0961,0.0919,0.0882,0.0903,0.0927,0.0933,0.096,0.0973,0.0982,0.1007,0.1025,0.1075,0.1077,0.1013,0.0932,0.0903,0.0747,0.071,0.0692,0.1038,0.1064,0.1065,0.1065,0.1065,0.1065,0,0.1021,0.0991,0.0937,0.0869,0.0849,0.0867,0.0911,0.0939,0.0963,0.0973,0.0975,0.1001,0.0998,0.1004,0.0921,0.0778,0.0749,0.0678,0.0537,0.0557,0.0801,0.0778,0.0827,0.0827,0.0827,0.0827,0.0827,0.0827,0.0955,0.0896,0.0889,0.0836,0.0821,0.0846,0.0893,0.0929,0.095,0.0939,0.0941,0.0949,0.0896,0.0639,0.0484,0.0461,0.0348,0.0279,0.0277,0.0347,0.0355,0.0363,0.0319,0.027,0.0269,0.0125,0.0121,0.0119]},{"header":{"parameterUnit":"m.s-1","parameterCategory":2,"la1":30.2991,"la2":30.254,"lo1":-89.0895,"lo2":-89.0444,"dy":0.0017,"dx":0.0017,"nx":28,"ny":28,"refTime":"2026-02-03T09:00:00:Z","depth":"0","parameterNumber":3,"parameterNumberName":"V-component_of_CURRENTS"},"data":[0,0,0,0,0,0,0,0,0,0,0,0,0,0,0,0,0,0,0,0,0,0,0,0,0,0,0,0,0,0,0,0,0,0,0,0,0,0,0,0,0,0,0,0,0,0,0,0,0,0,0,0,0,0,0,0,0,0,0.0417,0.0416,0,0.0429,0.043,0.0431,0.0487,0.0488,0.0488,0.0488,0.0498,0.0498,0.0497,0,0,0,0,0,0,0,0,0,0,0,0,0,0.0311,0.0315,0.0417,0.0416,0.0415,0.0428,0.043,0.0431,0.0487,0.0488,0.0488,0.0488,0.0498,0.0498,0.0497,0,0,0,0,0,0,0,0,0,0,0,0,0,0.0354,0.0316,0.0417,0.0437,0.0438,0.0428,0.043,0.0431,0.0487,0.0488,0.0488,0.0489,0.0498,0.0498,0.0497,0.0487,0,0,0.0497,0.0497,0,0,0,0,0,0,0,0,0.0352,0.036,0.0434,0.0435,0.0436,0.0447,0.0395,0.0446,0.0487,0.048,0.0488,0.0489,0.0473,0.0475,0.0492,0.0488,0.0488,0.0497,0.0497,0.0497,0.0497,0,0,0,0,0,0,0,0.0349,0.0358,0.0433,0.0433,0.0434,0.0399,0.0408,0.0405,0.0482,0.0481,0.0482,0.0466,0.0475,0.0492,0.0492,0.0488,0.0497,0.0497,0.0497,0.0497,0.0483,0.0483,0,0,0,0,0,0,0.0332,0.0357,0.0432,0.0432,0.0382,0.04,0.0411,0.0452,0.0482,0.0484,0.0465,0.0468,0.0492,0.0492,0.0493,0.0468,0.0497,0.0497,0.0497,0.0484,0.0483,0.0483,0,0,0,0,0,0,0.0331,0.0342,0.0431,0.0381,0.0389,0.0401,0.0447,0.0452,0.0462,0.0468,0.0473,0.0468,0.0492,0.0493,0.0497,0.047,0.0497,0.0497,0.0484,0.0484,0.0483,0.0428,0,0,0,0,0,0,0.0329,0.0343,0.0346,0.0383,0.0391,0.041,0.0446,0.0451,0.0446,0.0451,0.0472,0.0474,0.0493,0.0497,0.0497,0.047,0.0497,0.0485,0.0484,0.0483,0.043,0.0426,0.0422,0,0,0,0,0,0.0327,0.0315,0.0348,0.0354,0.0406,0.0407,0.0409,0.0424,0.0445,0.044,0.0471,0.0473,0.0493,0.0497,0.0497,0.0469,0.0485,0.0484,0.0483,0.0432,0.0427,0.0422,0,0,0,0,0,0,0.0299,0.032,0.0357,0.0365,0.0381,0.0412,0.0379,0.0415,0.0438,0.0447,0.0472,0.0476,0.0468,0.048,0.0483,0.0466,0.0487,0.0486,0.0448,0.0443,0.0439,0.046,0.0497,0,0,0,0,0,0.029,0.027,0.0318,0.032,0.0319,0.0357,0.0351,0.0388,0.0411,0.0423,0.0431,0.045,0.0465,0.0464,0.0474,0.0461,0.0468,0.0444,0.0439,0.0436,0.0454,0.0429,0.0423,0.0481,0.0481,0.0481,0,0,0.0274,0.0281,0.0272,0.0305,0.0314,0.0321,0.0357,0.0357,0.0377,0.0417,0.0415,0.0431,0.046,0.0455,0.045,0.0459,0.0422,0.0435,0.0431,0.0452,0.0427,0.0421,0.0416,0.048,0.048,0.048,0,0,0.0213,0.0248,0.0208,0.0226,0.0237,0.0269,0.0269,0.0305,0.0327,0.0346,0.0378,0.0383,0.0393,0.0409,0.0423,0.0399,0.0402,0.0393,0.0384,0.0357,0.0352,0.0348,0.0341,0.0336,0.0388,0.0388,0.0388,0,0.0186,0.019,0.0195,0.0182,0.0182,0.0246,0.0241,0.0276,0.0314,0.0326,0.0336,0.0376,0.0376,0.0398,0.0391,0.0387,0.0385,0.0396,0.035,0.0346,0.0343,0.0337,0.0332,0.0386,0.0386,0.0386,0.0386,0,0.0125,0.013,0.0103,0.0116,0.0116,0.0122,0.0176,0.0187,0.0221,0.0269,0.0292,0.032,0.0345,0.0336,0.0358,0.0339,0.035,0.0345,0.0359,0.0333,0.0329,0.0325,0.0382,0.0383,0.0383,0.0384,0,0,0.0089,0.0058,0.0063,0.0063,0.0095,0.0103,0.011,0.0147,0.0174,0.0217,0.0238,0.0266,0.0299,0.0319,0.034,0.0325,0.0278,0.0324,0.0324,0.0312,0.0234,0.0218,0.0213,0.026,0.0259,0.0259,0.0238,0,0.0051,0.001,0.0006,-0.0001,-0.0007,0.0035,0.0038,0.0087,0.0134,0.0168,0.0228,0.0264,0.0292,0.0306,0.0295,0.0292,0.0269,0.0286,0.0269,0.0269,0.0252,0.0208,0.0229,0.021,0.0234,0.0234,0.0233,0,0.0025,0.0,-0.0032,-0.0044,-0.0044,-0.0044,-0.0015,0.0006,0.0075,0.0112,0.0173,0.0236,0.0261,0.0271,0.0267,0.0278,0.0252,0.0246,0.0245,0.0253,0.0246,0.0243,0.0203,0.0341,0.0228,0.0229,0.0229,0,0.0025,-0.0011,-0.0043,-0.0037,-0.0043,-0.0063,-0.0065,-0.0015,0.0008,0.0088,0.0125,0.0188,0.0215,0.0211,0.0231,0.0233,0.0216,0.0206,0.0176,0.0175,0.0205,0.0207,0.0295,0.0175,0.0175,0.0175,0.0175,0,0.0014,0.0007,-0.0047,-0.0044,-0.0064,-0.008,-0.0083,-0.0054,-0.0028,0.0007,0.0103,0.0154,0.0196,0.0219,0.0217,0.02,0.0199,0.0176,0.0163,0.0185,0.0186,0.0319,0.0393,0.0174,0.0174,0.0174,0.0175,0,0.0045,0.001,-0.001,-0.005,-0.0059,-0.0068,-0.0102,-0.0092,-0.0064,-0.0022,0.0004,0.0104,0.0138,0.0189,0.0176,0.0171,0.0217,0.0146,0.0185,0.0177,0.026,0.0329,0.0355,0.0417,0.0097,0.0096,0.0096,0,0.0032,0.0025,0.0005,-0.0007,-0.0028,-0.0059,-0.007,-0.0088,-0.0087,-0.0043,-0.0019,0.004,0.0098,0.0117,0.0114,0.0109,0.0212,0.0123,0.0119,0.0271,0.0339,0.0354,0.0407,0.0138,0.0137,0.0137,0.0137,0,0.0017,0.003,0.0027,0.0016,-0.0009,-0.0026,-0.0068,-0.0074,-0.0092,-0.0062,-0.003,0.0009,0.0034,0.0067,0.0074,0.0077,0.0229,0.0117,0.0263,0.0371,0.0406,0.0458,0.0166,0.0136,0.0136,0.0136,0.0136,0.0137,0.0016,0.0018,0.0014,0.0019,-0.0006,-0.0018,-0.0026,-0.0056,-0.0059,-0.0027,-0.0029,0.0032,0.006,0.0076,0.0097,0.0208,0.0189,0.0266,0.0334,0.0332,0.0406,0.0117,0.0076,0.0076,0.0076,0.0075,0.0075,0,-0.0028,-0.0008,-0.0002,-0.001,-0.0027,-0.0025,-0.004,-0.0038,-0.0036,-0.0001,0.0019,0.0084,0.0166,0.0229,0.0331,0.0432,0.0449,0.0533,0.0603,0.0644,0.0382,0.0403,0.0446,0.0446,0.0446,0.0446,0.0446,0.0445,-0.0043,-0.0051,-0.003,-0.0051,-0.0047,-0.0058,-0.0052,-0.0014,0.0005,0.0082,0.013,0.0169,0.0296,0.0551,0.0755,0.0776,0.0925,0.0879,0.0966,0.0856,0.0838,0.0821,0.0859,0.0998,0.0998,0.1209,0.1211,0.1213]}],[{"header":{"parameterUnit":"m.s-1","parameterCategory":2,"la1":30.2991,"la2":30.254,"lo1":-89.0895,"lo2":-89.0444,"dy":0.0017,"dx":0.0017,"nx":28,"ny":28,"refTime":"2026-02-03T09:00:00:Z","depth":"2","parameterNumber":2,"parameterNumberName":"U-component_of_CURRENTS"},"data":[0,0,0,0,0,0,0,0,0,0,0,0,0,0,0,0,0,0,0,0,0,0,0,0,0,0,0,0,0,0,0,0,0,0,0,0,0,0,0,0,0,0,0,0,0,0,0,0,0,0,0,0,0,0,0,0,0,0,-0.2746,-0.2746,0,-0.2789,-0.2789,-0.2789,-0.2732,-0.2731,-0.2729,-0.2727,-0.2646,-0.2646,-0.2645,0,0,0,0,0,0,0,0,0,0,0,0,0,-0.271,-0.271,-0.2746,-0.2746,-0.2747,-0.2789,-0.2789,-0.2789,-0.2733,-0.2731,-0.2728,-0.2726,-0.2646,-0.2646,-0.2645,0,0,0,0,0,0,0,0,0,0,0,0,0,-0.2734,-0.271,-0.2745,-0.2726,-0.2724,-0.2788,-0.2789,-0.2789,-0.2733,-0.273,-0.2728,-0.2725,-0.2646,-0.2646,-0.2645,-0.2696,0,0,-0.2643,-0.2643,0,0,0,0,0,0,0,0,-0.2733,-0.2735,-0.2728,-0.2727,-0.2726,-0.2754,-0.2747,-0.2753,-0.2734,-0.2727,-0.2727,-0.2724,-0.2674,-0.2671,-0.2684,-0.2692,-0.2689,-0.2643,-0.2642,-0.2642,-0.2642,0,0,0,0,0,0,0,-0.2731,-0.2734,-0.276,-0.2729,-0.2728,-0.2748,-0.2747,-0.2749,-0.2712,-0.2728,-0.2724,-0.2734,-0.2672,-0.2685,-0.2681,-0.2687,-0.2643,-0.2642,-0.2642,-0.2642,-0.2529,-0.2526,0,0,0,0,0,0,-0.2729,-0.2732,-0.2759,-0.2762,-0.2725,-0.275,-0.2749,-0.2746,-0.2714,-0.2708,-0.2736,-0.2731,-0.2687,-0.2682,-0.2678,-0.263,-0.2642,-0.2642,-0.2641,-0.2531,-0.2528,-0.2526,0,0,0,0,0,0,-0.2728,-0.273,-0.2757,-0.275,-0.2755,-0.2753,-0.2751,-0.2749,-0.2723,-0.2722,-0.2713,-0.2708,-0.2685,-0.2679,-0.2646,-0.263,-0.2641,-0.2641,-0.2534,-0.253,-0.2527,-0.2601,0,0,0,0,0,0,-0.2726,-0.2729,-0.2699,-0.275,-0.2756,-0.277,-0.2754,-0.2751,-0.2737,-0.2729,-0.2697,-0.2688,-0.2682,-0.2647,-0.2646,-0.2629,-0.264,-0.2538,-0.2533,-0.2528,-0.2602,-0.2601,-0.2599,0,0,0,0,0,-0.2725,-0.2693,-0.2697,-0.27,-0.2723,-0.277,-0.2774,-0.2763,-0.2737,-0.2728,-0.27,-0.2687,-0.2612,-0.2647,-0.2645,-0.2628,-0.254,-0.2534,-0.2528,-0.2603,-0.2601,-0.2599,0,0,0,0,0,0,-0.2671,-0.2687,-0.2692,-0.2668,-0.2708,-0.276,-0.2724,-0.275,-0.2726,-0.2687,-0.2689,-0.268,-0.2632,-0.2611,-0.2649,-0.2567,-0.2561,-0.2554,-0.2617,-0.2615,-0.2614,-0.2616,-0.264,0,0,0,0,0,-0.265,-0.262,-0.2671,-0.2655,-0.2648,-0.2686,-0.2691,-0.2704,-0.2709,-0.2693,-0.2687,-0.2645,-0.2616,-0.2601,-0.2566,-0.2556,-0.252,-0.2523,-0.2522,-0.2522,-0.2513,-0.2455,-0.245,-0.2506,-0.2506,-0.2507,0,0,-0.2642,-0.2633,-0.2626,-0.264,-0.2642,-0.2665,-0.2677,-0.2673,-0.2699,-0.2688,-0.2671,-0.2641,-0.2605,-0.2578,-0.2552,-0.2559,-0.2484,-0.2514,-0.2516,-0.2507,-0.2449,-0.2444,-0.244,-0.2502,-0.2503,-0.2504,0,0,-0.262,-0.2577,-0.2552,-0.2568,-0.2572,-0.2608,-0.2604,-0.2644,-0.2639,-0.2657,-0.2629,-0.2597,-0.2573,-0.2555,-0.254,-0.2506,-0.2471,-0.2467,-0.2486,-0.243,-0.2427,-0.2423,-0.2382,-0.2374,-0.2479,-0.2479,-0.2479,0,-0.2605,-0.2583,-0.2562,-0.2547,-0.255,-0.258,-0.2589,-0.2612,-0.2652,-0.2651,-0.2636,-0.2589,-0.2565,-0.2544,-0.2525,-0.2509,-0.2467,-0.2516,-0.2435,-0.243,-0.2425,-0.2384,-0.2374,-0.2482,-0.2481,-0.2481,-0.2481,0,-0.2604,-0.2563,-0.2536,-0.2528,-0.2535,-0.2535,-0.2575,-0.258,-0.2583,-0.2625,-0.2593,-0.2577,-0.2547,-0.2531,-0.2528,-0.2476,-0.2454,-0.2441,-0.2461,-0.2426,-0.2382,-0.2371,-0.2486,-0.2485,-0.2484,-0.2483,0,0,-0.2637,-0.2553,-0.2549,-0.2523,-0.2514,-0.2538,-0.2538,-0.2576,-0.2577,-0.2599,-0.2596,-0.257,-0.2557,-0.2534,-0.2518,-0.2487,-0.2432,-0.2452,-0.2448,-0.2447,-0.2309,-0.2202,-0.218,-0.2407,-0.2405,-0.2403,-0.2299,0,-0.2645,-0.2619,-0.2574,-0.2561,-0.2543,-0.2529,-0.2538,-0.2567,-0.2579,-0.2583,-0.2571,-0.2545,-0.2562,-0.2527,-0.2508,-0.2444,-0.2402,-0.2461,-0.2309,-0.2304,-0.2244,-0.2162,-0.2041,-0.1928,-0.2288,-0.2286,-0.2284,0,-0.2672,-0.2639,-0.2622,-0.255,-0.2537,-0.253,-0.2521,-0.2535,-0.254,-0.2534,-0.2526,-0.2519,-0.2492,-0.2481,-0.24,-0.2434,-0.2363,-0.2322,-0.2316,-0.218,-0.2175,-0.2011,-0.1893,-0.2265,-0.2267,-0.2268,-0.2269,0,-0.2741,-0.267,-0.2651,-0.2636,-0.2581,-0.2538,-0.2508,-0.2508,-0.25,-0.2481,-0.2464,-0.2459,-0.2413,-0.236,-0.2308,-0.2331,-0.2197,-0.2218,-0.2059,-0.2053,-0.1897,-0.1878,-0.2113,-0.2113,-0.2113,-0.2113,-0.2114,0,-0.2776,-0.2743,-0.2661,-0.2654,-0.2602,-0.2543,-0.2498,-0.2476,-0.2431,-0.2398,-0.242,-0.239,-0.2369,-0.2318,-0.2277,-0.2133,-0.2169,-0.203,-0.2,-0.1916,-0.1901,-0.2152,-0.2158,-0.2109,-0.211,-0.2111,-0.2112,0,-0.2813,-0.2785,-0.274,-0.2661,-0.2622,-0.2575,-0.2457,-0.2419,-0.2389,-0.2331,-0.2308,-0.2309,-0.2215,-0.2199,-0.2091,-0.2054,-0.1952,-0.1881,-0.1793,-0.1752,-0.1857,-0.1868,-0.1691,-0.1686,-0.1681,-0.1678,-0.1675,0,-0.2808,-0.28,-0.2743,-0.2682,-0.2606,-0.2523,-0.2446,-0.2397,-0.235,-0.2279,-0.2239,-0.2152,-0.2092,-0.194,-0.182,-0.1695,-0.1787,-0.151,-0.1519,-0.1816,-0.1805,-0.1823,-0.1839,-0.1355,-0.135,-0.1346,-0.1342,0,-0.2759,-0.2757,-0.2716,-0.2612,-0.2514,-0.2446,-0.2324,-0.2305,-0.223,-0.2196,-0.2105,-0.2046,-0.187,-0.1688,-0.1515,-0.1434,-0.1532,-0.1412,-0.1709,-0.148,-0.149,-0.1484,-0.1512,-0.1303,-0.1307,-0.131,-0.1312,-0.1313,-0.2674,-0.2645,-0.2582,-0.2466,-0.2377,-0.228,-0.2194,-0.212,-0.2052,-0.193,-0.1972,-0.1792,-0.1669,-0.1321,-0.1216,-0.11,-0.1202,-0.1161,-0.1179,-0.12,-0.1179,-0.1179,-0.0932,-0.0933,-0.0935,-0.0936,-0.0937,0,-0.252,-0.2486,-0.2395,-0.2268,-0.2142,-0.2127,-0.2029,-0.1958,-0.1843,-0.1748,-0.1675,-0.1357,-0.121,-0.1076,-0.0846,-0.0786,-0.0817,-0.0743,-0.0818,-0.0855,-0.0889,-0.0858,-0.0522,-0.0521,-0.052,-0.0519,0,0,-0.2421,-0.2329,-0.23,-0.2046,-0.1931,-0.1741,-0.1674,-0.1626,-0.1541,-0.1345,-0.1176,-0.1212,-0.1075,-0.0816,-0.0737,-0.0617,-0.074,-0.0565,-0.0897,-0.1027,-0.106,-0.1119,-0.1108,0,0,0,0,0]},{"header":{"parameterUnit":"m.s-1","parameterCategory":2,"la1":30.2991,"la2":30.254,"lo1":-89.0895,"lo2":-89.0444,"dy":0.0017,"dx":0.0017,"nx":28,"ny":28,"refTime":"2026-02-03T09:00:00:Z","depth":"2","parameterNumber":3,"parameterNumberName":"V-component_of_CURRENTS"},"data":[0,0,0,0,0,0,0,0,0,0,0,0,0,0,0,0,0,0,0,0,0,0,0,0,0,0,0,0,0,0,0,0,0,0,0,0,0,0,0,0,0,0,0,0,0,0,0,0,0,0,0,0,0,0,0,0,0,0,0.0109,0.0109,0,0.0165,0.0166,0.0166,0.0143,0.0142,0.0141,0.0139,0.0188,0.019,0.0192,0,0,0,0,0,0,0,0,0,0,0,0,0,-0.0015,-0.0012,0.0108,0.0109,0.011,0.0165,0.0166,0.0166,0.0143,0.0142,0.014,0.0139,0.0187,0.019,0.0193,0,0,0,0,0,0,0,0,0,0,0,0,0,0.0039,-0.0012,0.0108,0.0106,0.0106,0.0165,0.0166,0.0167,0.0144,0.0142,0.014,0.0138,0.0186,0.0189,0.0193,0.0254,0,0,0.0204,0.0206,0,0,0,0,0,0,0,0,0.0036,0.0044,0.0105,0.0106,0.0107,0.0146,0.014,0.0196,0.0144,0.0129,0.0139,0.0137,0.0175,0.0179,0.0193,0.0257,0.0259,0.0205,0.0207,0.0209,0.021,0,0,0,0,0,0,0,0.0033,0.0041,0.013,0.0106,0.0107,0.0103,0.0109,0.015,0.0161,0.013,0.0129,0.0137,0.0175,0.019,0.0194,0.0259,0.0205,0.0208,0.021,0.0212,0.0286,0.0286,0,0,0,0,0,0,0.003,0.0038,0.0128,0.0132,0.0067,0.0107,0.0113,0.0135,0.0161,0.0163,0.0138,0.0135,0.0184,0.019,0.0196,0.0214,0.0209,0.0212,0.0214,0.0286,0.0286,0.0285,0,0,0,0,0,0,0.0027,0.0038,0.0126,0.0086,0.0097,0.0111,0.0135,0.0137,0.0127,0.0167,0.0169,0.0124,0.0183,0.0191,0.0215,0.0217,0.0214,0.0217,0.0286,0.0286,0.0286,0.0286,0,0,0,0,0,0,0.0023,0.0037,0.0035,0.0086,0.0099,0.0145,0.0137,0.0139,0.0137,0.0133,0.0157,0.016,0.0182,0.0209,0.0219,0.0222,0.022,0.0287,0.0286,0.0286,0.0286,0.0286,0.0285,0,0,0,0,0,0.0019,0.0014,0.0035,0.0045,0.0102,0.0145,0.0151,0.0154,0.0137,0.0137,0.0151,0.0158,0.0212,0.0213,0.0224,0.0229,0.0287,0.0286,0.0286,0.0286,0.0286,0.0285,0,0,0,0,0,0,-0.004,0.0013,0.0036,0.0049,0.0093,0.0141,0.0132,0.0145,0.0157,0.0139,0.0172,0.0178,0.0195,0.0212,0.0212,0.0244,0.0245,0.0246,0.0241,0.0241,0.024,0.0229,0.0223,0,0,0,0,0,-0.0047,-0.0042,0.0025,0.0035,0.0053,0.0094,0.0104,0.0114,0.014,0.0141,0.0165,0.0182,0.0208,0.0222,0.0245,0.0279,0.0297,0.0281,0.028,0.028,0.0275,0.0301,0.0302,0.0284,0.0284,0.0284,0,0,-0.0063,-0.0038,-0.0032,0.0021,0.005,0.0074,0.0093,0.0104,0.0119,0.0148,0.0159,0.0183,0.0214,0.0242,0.025,0.0254,0.0298,0.0279,0.0279,0.0274,0.03,0.0302,0.0304,0.0283,0.0283,0.0283,0,0,-0.01,-0.0069,-0.0076,-0.0045,-0.0007,0.0033,0.0033,0.0082,0.0094,0.0126,0.0142,0.0171,0.0209,0.0243,0.0262,0.0275,0.029,0.0266,0.0265,0.029,0.0292,0.0294,0.0338,0.0344,0.0271,0.0271,0.0271,0,-0.012,-0.0118,-0.0071,-0.0068,-0.0061,0.0011,0.0007,0.0054,0.0102,0.0125,0.0118,0.019,0.0213,0.0268,0.026,0.0277,0.0289,0.027,0.029,0.0292,0.0294,0.0339,0.0345,0.0271,0.0271,0.0271,0.0271,0,-0.015,-0.0157,-0.0161,-0.0128,-0.0108,-0.0101,-0.0027,0.0011,0.0037,0.0087,0.0138,0.0187,0.0225,0.0241,0.0253,0.0284,0.0289,0.0285,0.0295,0.0297,0.0343,0.035,0.0271,0.0271,0.0271,0.0271,0,0,-0.0167,-0.018,-0.0182,-0.0191,-0.015,-0.0125,-0.0086,-0.0015,0.0026,0.0085,0.0133,0.0185,0.0214,0.0236,0.0269,0.0298,0.033,0.0285,0.0287,0.0334,0.039,0.0425,0.0436,0.0318,0.0319,0.0319,0.0424,0,-0.0203,-0.023,-0.0231,-0.0246,-0.0248,-0.019,-0.0153,-0.008,-0.0006,0.0074,0.0155,0.02,0.0215,0.0226,0.0262,0.0318,0.0342,0.0302,0.0376,0.0379,0.0414,0.0444,0.0416,0.0508,0.0431,0.0432,0.0433,0,-0.0231,-0.0249,-0.0289,-0.0304,-0.0298,-0.0295,-0.0217,-0.0181,-0.004,0.0011,0.0094,0.0165,0.0245,0.0233,0.034,0.0307,0.033,0.0373,0.0378,0.0412,0.0426,0.049,0.0524,0.0445,0.0444,0.0443,0.0442,0,-0.0259,-0.0293,-0.0333,-0.0337,-0.0323,-0.033,-0.0315,-0.0205,-0.0153,-0.0035,0.0024,0.0138,0.0192,0.0253,0.0348,0.0328,0.0465,0.0454,0.0517,0.0521,0.0514,0.0516,0.0493,0.0493,0.0493,0.0492,0.0492,0,-0.0303,-0.0336,-0.0352,-0.037,-0.039,-0.0385,-0.0367,-0.0311,-0.0217,-0.0136,-0.0034,0.0065,0.0186,0.03,0.0359,0.0482,0.0472,0.0527,0.055,0.0516,0.0516,0.0463,0.0458,0.0496,0.0495,0.0495,0.0494,0,-0.035,-0.0359,-0.0395,-0.0407,-0.0411,-0.0431,-0.0419,-0.0373,-0.0306,-0.0195,-0.0168,0.0014,0.0148,0.0289,0.0418,0.0499,0.0604,0.0628,0.0596,0.0612,0.0643,0.0637,0.073,0.0732,0.0734,0.0736,0.0737,0,-0.0392,-0.0411,-0.0421,-0.0429,-0.0454,-0.0473,-0.0461,-0.0418,-0.0358,-0.0207,-0.014,0.0008,0.0167,0.0402,0.0557,0.0707,0.0636,0.073,0.0687,0.0655,0.0667,0.0658,0.065,0.0689,0.069,0.069,0.0691,0,-0.0461,-0.0451,-0.0473,-0.0472,-0.0483,-0.0479,-0.047,-0.0428,-0.0344,-0.0234,-0.0071,0.0053,0.0293,0.0484,0.066,0.0729,0.0716,0.0749,0.0729,0.0629,0.0623,0.0632,0.0624,0.0696,0.0696,0.0695,0.0695,0.0695,-0.0508,-0.0522,-0.0517,-0.0522,-0.0515,-0.0484,-0.0463,-0.0402,-0.0305,-0.016,-0.0054,0.0118,0.0244,0.0526,0.0649,0.0786,0.0814,0.0791,0.0786,0.0781,0.0753,0.075,0.0844,0.0844,0.0844,0.0844,0.0845,0,-0.0557,-0.0552,-0.0561,-0.0551,-0.0539,-0.0516,-0.0446,-0.0397,-0.0266,-0.0166,-0.003,0.0083,0.0295,0.0429,0.0706,0.0843,0.0809,0.0783,0.0708,0.0705,0.0702,0.0665,0.0735,0.0734,0.0734,0.0733,0,0,-0.058,-0.0598,-0.0589,-0.0576,-0.0553,-0.0489,-0.0436,-0.0344,-0.0254,-0.016,-0.0059,0.0023,0.0267,0.035,0.0509,0.0658,0.0625,0.0639,0.0726,0.0618,0.0611,0.0722,0.0666,0,0,0,0,0]}],[{"header":{"parameterUnit":"m.s-1","parameterCategory":2,"la1":30.2991,"la2":30.254,"lo1":-89.0895,"lo2":-89.0444,"dy":0.0017,"dx":0.0017,"nx":28,"ny":28,"refTime":"2026-02-03T09:00:00:Z","depth":"4","parameterNumber":2,"parameterNumberName":"U-component_of_CURRENTS"},"data":[0,0,0,0,0,0,0,0,0,0,0,0,0,0,0,0,0,0,0,0,0,0,0,0,0,0,0,0,0,0,0,0,0,0,0,0,0,0,0,0,0,0,0,0,0,0,0,0,0,0,0,0,0,0,0,0,0,0,-0.116,-0.116,0,-0.119,-0.119,-0.1191,-0.1229,-0.1229,-0.1229,-0.1229,-0.1295,-0.1297,-0.1298,0,0,0,0,0,0,0,0,0,0,0,0,0,-0.1098,-0.1099,-0.116,-0.116,-0.116,-0.119,-0.119,-0.1191,-0.1229,-0.1229,-0.1229,-0.1229,-0.1295,-0.1297,-0.1299,0,0,0,0,0,0,0,0,0,0,0,0,0,-0.113,-0.11,-0.116,-0.1179,-0.1181,-0.119,-0.1191,-0.1192,-0.1229,-0.1229,-0.1229,-0.123,-0.1294,-0.1297,-0.1299,-0.1307,0,0,-0.1306,-0.1307,0,0,0,0,0,0,0,0,-0.1128,-0.1133,-0.1176,-0.1178,-0.1179,-0.1202,-0.1193,-0.123,-0.1229,-0.1215,-0.1229,-0.123,-0.1265,-0.1269,-0.128,-0.131,-0.1313,-0.1306,-0.1308,-0.1309,-0.1309,0,0,0,0,0,0,0,-0.1126,-0.1131,-0.1176,-0.1176,-0.1178,-0.1173,-0.1179,-0.12,-0.1241,-0.1216,-0.1218,-0.1214,-0.1266,-0.1277,-0.1282,-0.1314,-0.1306,-0.1308,-0.131,-0.1311,-0.1388,-0.1389,0,0,0,0,0,0,-0.1116,-0.113,-0.1175,-0.1176,-0.1149,-0.1174,-0.118,-0.1198,-0.124,-0.1246,-0.1214,-0.1216,-0.1273,-0.1279,-0.1284,-0.1335,-0.1309,-0.1311,-0.1312,-0.1387,-0.1388,-0.1389,0,0,0,0,0,0,-0.1115,-0.112,-0.1173,-0.1149,-0.1155,-0.1174,-0.1194,-0.1198,-0.1231,-0.1238,-0.1245,-0.1243,-0.1274,-0.1281,-0.1309,-0.1336,-0.1312,-0.1314,-0.1387,-0.1388,-0.1389,-0.1411,0,0,0,0,0,0,-0.1113,-0.112,-0.1136,-0.1149,-0.1156,-0.1189,-0.1193,-0.1198,-0.1224,-0.1228,-0.1265,-0.127,-0.1275,-0.1306,-0.1312,-0.1339,-0.1316,-0.1386,-0.1387,-0.1388,-0.141,-0.1413,-0.1416,0,0,0,0,0,-0.1111,-0.1132,-0.1137,-0.1142,-0.1175,-0.1189,-0.1193,-0.121,-0.1226,-0.1241,-0.126,-0.127,-0.1318,-0.1308,-0.1315,-0.1343,-0.1385,-0.1387,-0.1388,-0.1408,-0.1412,-0.1416,0,0,0,0,0,0,-0.1108,-0.1137,-0.1144,-0.1172,-0.1182,-0.1194,-0.1212,-0.1223,-0.1252,-0.1265,-0.1276,-0.1283,-0.132,-0.1325,-0.1314,-0.1368,-0.1355,-0.1358,-0.1368,-0.1372,-0.1375,-0.1379,-0.1318,0,0,0,0,0,-0.1113,-0.1144,-0.1156,-0.1178,-0.1189,-0.1206,-0.1217,-0.123,-0.1249,-0.1264,-0.1286,-0.1309,-0.1329,-0.1344,-0.1363,-0.1392,-0.1395,-0.1415,-0.1418,-0.142,-0.1428,-0.1462,-0.1469,-0.1394,-0.1394,-0.1394,0,0,-0.1113,-0.1135,-0.115,-0.1179,-0.1196,-0.1216,-0.1217,-0.1244,-0.1261,-0.1266,-0.1309,-0.1325,-0.1339,-0.1369,-0.1387,-0.1379,-0.1438,-0.1422,-0.1424,-0.1431,-0.1464,-0.1472,-0.1478,-0.1395,-0.1395,-0.1395,0,0,-0.112,-0.1156,-0.1178,-0.12,-0.1226,-0.1236,-0.1249,-0.1275,-0.1293,-0.1322,-0.1332,-0.1351,-0.1394,-0.1396,-0.1405,-0.1434,-0.1454,-0.1459,-0.1479,-0.1512,-0.1519,-0.1525,-0.1513,-0.1518,-0.1459,-0.1459,-0.1459,0,-0.1121,-0.1152,-0.1182,-0.1211,-0.1228,-0.125,-0.127,-0.1291,-0.1321,-0.1335,-0.134,-0.1394,-0.1399,-0.1428,-0.1439,-0.1441,-0.1462,-0.1464,-0.1517,-0.1523,-0.1528,-0.1515,-0.152,-0.146,-0.146,-0.146,-0.146,0,-0.1137,-0.1172,-0.1191,-0.1237,-0.1259,-0.1286,-0.131,-0.1338,-0.1362,-0.1377,-0.1418,-0.1423,-0.1452,-0.146,-0.1461,-0.1509,-0.1509,-0.1517,-0.1508,-0.1537,-0.1521,-0.1526,-0.1462,-0.1462,-0.1461,-0.1461,0,0,-0.1122,-0.1188,-0.12,-0.1221,-0.128,-0.1295,-0.1335,-0.1364,-0.1386,-0.1424,-0.1446,-0.1479,-0.1494,-0.1504,-0.151,-0.1537,-0.1574,-0.1558,-0.1559,-0.1545,-0.1639,-0.149,-0.148,-0.1617,-0.1619,-0.162,-0.1602,0,-0.1126,-0.1171,-0.1209,-0.1253,-0.1275,-0.1321,-0.135,-0.1385,-0.1412,-0.144,-0.1462,-0.1492,-0.1508,-0.1524,-0.1558,-0.157,-0.1595,-0.1577,-0.1613,-0.1613,-0.1477,-0.1483,-0.1625,-0.1605,-0.1607,-0.1607,-0.1608,0,-0.1128,-0.1159,-0.1199,-0.1255,-0.1271,-0.1303,-0.1354,-0.1386,-0.1434,-0.1454,-0.1499,-0.1522,-0.1557,-0.1567,-0.162,-0.1623,-0.1643,-0.165,-0.165,-0.1509,-0.1473,-0.1576,-0.1617,-0.1616,-0.1615,-0.1615,-0.1614,0,-0.1086,-0.1153,-0.1181,-0.1208,-0.1274,-0.1302,-0.134,-0.1394,-0.1417,-0.1472,-0.1489,-0.1545,-0.1561,-0.1616,-0.1626,-0.1649,-0.167,-0.1689,-0.1569,-0.1557,-0.1689,-0.1684,-0.1741,-0.1741,-0.1741,-0.1741,-0.1741,0,-0.1069,-0.1098,-0.1168,-0.1188,-0.1219,-0.1285,-0.1322,-0.1361,-0.1417,-0.1429,-0.1502,-0.1494,-0.1589,-0.1604,-0.1631,-0.1587,-0.1672,-0.1565,-0.1547,-0.1694,-0.1689,-0.1691,-0.1685,-0.174,-0.174,-0.174,-0.1741,0,-0.1021,-0.107,-0.1104,-0.1177,-0.12,-0.1228,-0.1305,-0.1319,-0.1393,-0.1406,-0.1428,-0.1477,-0.148,-0.1533,-0.1579,-0.1557,-0.1546,-0.1517,-0.1632,-0.1622,-0.1414,-0.141,-0.1383,-0.1378,-0.1373,-0.1369,-0.1366,0,-0.0995,-0.1011,-0.1083,-0.1092,-0.1129,-0.1182,-0.1202,-0.1291,-0.1301,-0.1361,-0.1341,-0.1375,-0.1392,-0.1319,-0.1396,-0.141,-0.1416,-0.1405,-0.145,-0.1394,-0.1381,-0.1384,-0.1386,-0.1359,-0.1358,-0.1357,-0.1356,0,-0.0941,-0.0979,-0.1003,-0.1023,-0.1047,-0.1069,-0.1109,-0.1112,-0.1194,-0.127,-0.1217,-0.1214,-0.1197,-0.1213,-0.1227,-0.1246,-0.1408,-0.1358,-0.1369,-0.1412,-0.1365,-0.1356,-0.1364,-0.134,-0.1342,-0.1344,-0.1345,0,-0.0897,-0.0895,-0.0925,-0.0934,-0.0953,-0.0935,-0.098,-0.0981,-0.1011,-0.1095,-0.1056,-0.1091,-0.1149,-0.1123,-0.1127,-0.1131,-0.1144,-0.1143,-0.1166,-0.1184,-0.1131,-0.1043,-0.0896,0,0,0,0,0,-0.084,-0.0824,-0.0825,-0.0812,-0.0827,-0.0835,-0.0896,-0.0945,-0.1027,-0.0954,-0.1012,-0.0985,-0.0975,-0.0989,-0.096,-0.106,-0.1161,-0.1022,-0.1175,-0.1253,-0.1271,-0.1229,0,0,0,0,0,0,-0.0796,-0.0798,-0.0793,-0.071,-0.0674,-0.0673,-0.0708,-0.0768,-0.0745,-0.0835,-0.083,-0.0906,-0.0911,-0.0959,-0.0923,-0.0937,-0.1013,-0.1062,-0.1059,-0.1243,-0.1259,-0.1274,-0.1237,0,0,0,0,0]},{"header":{"parameterUnit":"m.s-1","parameterCategory":2,"la1":30.2991,"la2":30.254,"lo1":-89.0895,"lo2":-89.0444,"dy":0.0017,"dx":0.0017,"nx":28,"ny":28,"refTime":"2026-02-03T09:00:00:Z","depth":"4","parameterNumber":3,"parameterNumberName":"V-component_of_CURRENTS"},"data":[0,0,0,0,0,0,0,0,0,0,0,0,0,0,0,0,0,0,0,0,0,0,0,0,0,0,0,0,0,0,0,0,0,0,0,0,0,0,0,0,0,0,0,0,0,0,0,0,0,0,0,0,0,0,0,0,0,0,-0.0125,-0.0124,0,-0.0119,-0.0119,-0.0119,-0.0132,-0.0132,-0.0132,-0.0132,-0.0116,-0.0116,-0.0115,0,0,0,0,0,0,0,0,0,0,0,0,0,-0.0144,-0.0144,-0.0125,-0.0124,-0.0124,-0.0119,-0.0119,-0.0119,-0.0132,-0.0132,-0.0132,-0.0132,-0.0116,-0.0116,-0.0115,0,0,0,0,0,0,0,0,0,0,0,0,0,-0.0141,-0.0144,-0.0125,-0.0126,-0.0126,-0.0119,-0.0119,-0.012,-0.0132,-0.0132,-0.0132,-0.0132,-0.0116,-0.0116,-0.0115,-0.0112,0,0,-0.0113,-0.0113,0,0,0,0,0,0,0,0,-0.0141,-0.0141,-0.0126,-0.0126,-0.0125,-0.0122,-0.012,-0.0115,-0.0132,-0.0134,-0.0132,-0.0132,-0.0114,-0.0114,-0.0119,-0.0111,-0.011,-0.0113,-0.0113,-0.0113,-0.0112,0,0,0,0,0,0,0,-0.0141,-0.0141,-0.0127,-0.0126,-0.0125,-0.0125,-0.0125,-0.0119,-0.0128,-0.0134,-0.0134,-0.0126,-0.0114,-0.012,-0.0119,-0.011,-0.0113,-0.0113,-0.0112,-0.0112,-0.0105,-0.0105,0,0,0,0,0,0,-0.0133,-0.0141,-0.0127,-0.0126,-0.0128,-0.0125,-0.0125,-0.0127,-0.0128,-0.0127,-0.0126,-0.0126,-0.0121,-0.012,-0.0118,-0.0137,-0.0113,-0.0112,-0.0112,-0.0105,-0.0105,-0.0105,0,0,0,0,0,0,-0.0134,-0.0132,-0.0127,-0.0129,-0.0128,-0.0124,-0.0126,-0.0127,-0.0135,-0.0121,-0.0121,-0.0133,-0.0121,-0.0119,-0.0126,-0.0135,-0.0112,-0.0111,-0.0105,-0.0105,-0.0105,-0.0159,0,0,0,0,0,0,-0.0134,-0.0133,-0.014,-0.0129,-0.0128,-0.0129,-0.0126,-0.0126,-0.0127,-0.0128,-0.0127,-0.0125,-0.0121,-0.0127,-0.0125,-0.0134,-0.0111,-0.0104,-0.0105,-0.0105,-0.0157,-0.0161,-0.0165,0,0,0,0,0,-0.0135,-0.0148,-0.0141,-0.0139,-0.0136,-0.0129,-0.013,-0.0129,-0.0127,-0.0136,-0.0139,-0.0125,-0.0127,-0.0127,-0.0125,-0.0134,-0.0104,-0.0105,-0.0105,-0.0155,-0.016,-0.0164,0,0,0,0,0,0,-0.0158,-0.0149,-0.0142,-0.0151,-0.014,-0.013,-0.0135,-0.0131,-0.014,-0.0143,-0.0134,-0.0133,-0.0142,-0.0127,-0.0127,-0.013,-0.0111,-0.0111,-0.0149,-0.0154,-0.0158,-0.0165,-0.011,0,0,0,0,0,-0.0164,-0.0172,-0.0156,-0.016,-0.0156,-0.0145,-0.0144,-0.0142,-0.0141,-0.0146,-0.0143,-0.0139,-0.0141,-0.014,-0.0137,-0.0141,-0.0118,-0.0141,-0.0145,-0.0149,-0.0152,-0.0136,-0.0139,-0.0107,-0.0107,-0.0107,0,0,-0.0169,-0.0166,-0.0168,-0.0165,-0.0157,-0.0166,-0.0147,-0.0146,-0.0159,-0.0141,-0.0163,-0.0154,-0.0145,-0.0155,-0.0156,-0.0145,-0.0143,-0.0149,-0.0152,-0.0154,-0.0137,-0.014,-0.0143,-0.0107,-0.0107,-0.0107,0,0,-0.018,-0.0182,-0.0191,-0.0196,-0.0186,-0.0181,-0.0181,-0.0174,-0.0178,-0.019,-0.0183,-0.0187,-0.0181,-0.0185,-0.0184,-0.0204,-0.0165,-0.0189,-0.0216,-0.0201,-0.0203,-0.0206,-0.0171,-0.0169,-0.019,-0.019,-0.019,0,-0.0187,-0.0199,-0.019,-0.0208,-0.0218,-0.019,-0.0209,-0.0208,-0.0207,-0.0215,-0.0202,-0.021,-0.0201,-0.022,-0.0225,-0.0216,-0.0185,-0.0204,-0.0207,-0.0209,-0.021,-0.0173,-0.0171,-0.0193,-0.0193,-0.0192,-0.0192,0,-0.0208,-0.0225,-0.0231,-0.0247,-0.0259,-0.0267,-0.0265,-0.0273,-0.0268,-0.0266,-0.0279,-0.0268,-0.0273,-0.0265,-0.0251,-0.0256,-0.0224,-0.0216,-0.0199,-0.0217,-0.0176,-0.0173,-0.0197,-0.0196,-0.0195,-0.0194,0,0,-0.0213,-0.0239,-0.0246,-0.0267,-0.0286,-0.0297,-0.0321,-0.0332,-0.0353,-0.0341,-0.0367,-0.0359,-0.0341,-0.0337,-0.0316,-0.0298,-0.0278,-0.0256,-0.0254,-0.0228,-0.0219,-0.0159,-0.0149,-0.0264,-0.0264,-0.0264,-0.0184,0,-0.0231,-0.0269,-0.0284,-0.033,-0.0351,-0.0362,-0.0391,-0.0406,-0.0405,-0.0422,-0.0402,-0.0413,-0.0371,-0.0372,-0.0348,-0.0306,-0.0273,-0.0299,-0.0201,-0.0198,-0.0148,-0.0145,-0.0264,-0.0182,-0.0181,-0.018,-0.018,0,-0.026,-0.028,-0.0326,-0.0381,-0.0393,-0.0421,-0.0471,-0.0493,-0.0508,-0.051,-0.0507,-0.0484,-0.0469,-0.0424,-0.0351,-0.0364,-0.0289,-0.0244,-0.024,-0.0164,-0.0132,-0.0161,-0.0174,-0.0174,-0.0174,-0.0175,-0.0175,0,-0.0279,-0.0323,-0.036,-0.0382,-0.0431,-0.0461,-0.0487,-0.052,-0.0547,-0.056,-0.0577,-0.0547,-0.0538,-0.0456,-0.0349,-0.0348,-0.0251,-0.0245,-0.0116,-0.011,-0.0166,-0.0164,-0.0175,-0.0175,-0.0176,-0.0176,-0.0176,0,-0.0311,-0.0346,-0.0371,-0.0399,-0.0459,-0.0487,-0.0549,-0.0573,-0.0605,-0.0638,-0.0616,-0.0618,-0.0541,-0.0473,-0.0367,-0.0226,-0.0261,-0.0115,-0.0088,-0.0188,-0.019,-0.0163,-0.0162,-0.0173,-0.0174,-0.0174,-0.0175,0,-0.0341,-0.0354,-0.0407,-0.0453,-0.0474,-0.0522,-0.0592,-0.0631,-0.0654,-0.0695,-0.07,-0.0674,-0.0576,-0.0473,-0.0342,-0.0251,-0.0126,-0.0057,-0.0158,-0.0139,0.0011,0.0007,0.0078,0.0081,0.0083,0.0085,0.0086,0,-0.0359,-0.0383,-0.0447,-0.0485,-0.0509,-0.0572,-0.062,-0.0658,-0.0685,-0.0714,-0.0724,-0.0659,-0.0614,-0.0392,-0.0278,-0.0076,-0.0035,0.0022,0.0008,0.0016,0.0035,0.0028,0.0022,0.009,0.0091,0.0091,0.0092,0,-0.0389,-0.0411,-0.0452,-0.0522,-0.0578,-0.0644,-0.0693,-0.0712,-0.0745,-0.0768,-0.0723,-0.0625,-0.0509,-0.0357,-0.0195,-0.005,-0.0032,0.0047,0.0043,0.003,0.0032,0.0047,0.0038,0.01,0.0099,0.0098,0.0098,0,-0.0409,-0.0447,-0.0493,-0.0557,-0.0629,-0.0682,-0.0714,-0.072,-0.0743,-0.0743,-0.0719,-0.0612,-0.0557,-0.0339,-0.0191,-0.0045,-0.0007,0.0028,0.0025,0.0018,-0.002,-0.0028,0.0049,0,0,0,0,0,-0.0419,-0.0456,-0.052,-0.059,-0.066,-0.0696,-0.0749,-0.0764,-0.0776,-0.0737,-0.0722,-0.06,-0.0392,-0.0316,-0.0153,-0.0145,0.0013,0.005,0.0051,0.0145,0.0136,0.0107,0,0,0,0,0,0,-0.0429,-0.0484,-0.0515,-0.0592,-0.0641,-0.0716,-0.0749,-0.0762,-0.072,-0.0714,-0.0598,-0.0554,-0.0346,-0.0478,-0.0148,-0.0108,-0.0083,0.0142,0.0145,0.015,0.0142,0.0134,0.0101,0,0,0,0,0]}]]